User: anonymous   Login
Location: Arrodets-la-Barthe
(43.0306°N, 0.2829°E)
Time: 11:26:11
(UTC+00:00)
Language:

CUBEBUG 2 - Orbit

View from above orbital plane
View from above orbital plane
View from above satellite
View from above satellite

Ground track
Ground track

The orbit data is extracted from the following two-line orbital elements,

1 39440U 13066AA  24110.81437041  .00010433  00000-0  12451-2 0  9998
2 39440  97.8092  55.7913 0072754 104.4581 256.4720 14.82521165560883
Epoch (UTC): 19 April 2024 19:32:41
Eccentricity: 0.0072754
inclination: 97.8092°
perigee height: 570 km
apogee height: 672 km
right ascension of ascending node: 55.7913°
argument of perigee: 104.4581°
revolutions per day: 14.82521165
mean anomaly at epoch: 256.4720°
orbit number at epoch: 56088

The dashed part of the orbit path shows where the satellite is in the earth's shadow,  

DLR